FENGYUN 1C DEB, 30306

Orbit data source: Space-Track

FENGYUN 1C DEB, 30306 is space debris in SSO originally from a launch on Mon, 10 May 1999 UTC launched from the Taiyaun Space Center, China (TSC). Fengyun 1C debris stems from the Chinese weather satellite Fengyun-1C, which was intentionally destroyed by a Chinese anti-satellite missile in 2007. This event dramatically increased the amount of space debris, with thousands of trackable fragments posing hazards to satellites and human spaceflight. The Fengyun 1C debris cloud has become a focal point in discussions about space sustainability and the need for international regulations to prevent the creation of new debris.

Loading next visibility...
Identifier
30306, 1999-025ZT
Orbit
SSO
Country
Flag of CNCN / PRC
Related business
Manufacturer
Unknown
Mission
Spacecraft
Bus & Motor
Unknown
Mass
Unknown
Launch date (UTC)
1999-05-10 (27 years ago)
Launch vehicle
Unknown
Launch site
Taiyaun Space Center, China (TSC)
Object type
Payload
Rocket body
Debris
Shape & HBR
Unknown shape, 0.1 m
Radar Cross Section
Small (<0.1 m²)

Expand to show TLE details & history
Last TLE update: 6 hours ago

TLE from 6 hours ago
0 FENGYUN 1C DEB
1 30306U 99025ZT  26063.05720679  .00003379  00000-0  12679-2 0  9999
2 30306  98.5780 107.8203 0114836 119.2341 242.0382 14.28673709988425
Epoch: 2026-03-04T01:22Z
TLE epoch observation values (Epoch: 2026-03-04T01:22:22.666Z)
Latitude
0.00001°
Longitude
-74.60152°
Altitude
838.469 km
Speed
7.413 km/s
True Right ascension
07h 11m 16s
True Declination
0° 00' 00"
Sunlit
Object was in full shadow at epoch
Visualization orbit readout
Latitude
Unknown
Longitude
Unknown
Altitude
Unknown
Speed
Unknown
Apparent Right ascension
Unknown
Apparent Declination
Unknown
Sunlit
N/A
Visualization observer readout
Local Sidereal Time
11:33:38
Azimuth
Unknown
Elevation
Unknown
Doppler factor
Unknown
Orbital elements
Apogee altitude
875.662 km
Perigee altitude
710.954 km
Semi-major axis
7,171.445 km
Eccentricity
0.01148
Inclination
98.578°
RAAN
107.8203°
Arg. of periapsis
119.2341°
True anomaly
240.88375°
Mean anomaly
242.0382°
Eccentric anomaly
241.46019°
Mean motion
3.57382 °/min
Orbital period
100.73 mins
BSTAR
0.0012679
Loading maneuver chart data...
Computing Atmospheric mass density...

Documentation

Showing up to 5 results
|